GFSNIL_sfc_thetae_210.txt.gz
Theta_e
304 306 306 306 308 308 307 307 308 307 309 309 310 311 311 309 308 308 307 306 306 304
296 301 302 303 303 302 303 300 299 300 302 303 303 304 304 303 302 302 301 300 300 299
292 294 295 297 297 298 299 300 299 297 297 297 297 299 299 297 297 296 294 294 293 293
289 291 292 291 291 291 291 293 292 292 293 293 292 293 292 291 291 289 289 289 288 287
287 288 288 288 288 289 288 288 287 287 287 288 288 288 287 285 285 284 284 284 283 283
285 285 285 285 286 286 286 285 285 284 284 284 285 285 285 284 283 282 282 282 282 281
282 283 283 284 284 284 284 283 282 282 282 283 283 283 283 283 281 281 281 281 281 281
280 281 281 281 281 281 281 281 281 281 281 282 283 283 282 282 281 280 279 280 280 280
279 279 279 279 279 279 279 279 279 279 280 280 283 285 284 282 280 280 279 279 279 279
277 277 277 278 278 277 277 278 278 279 279 279 281 283 283 281 279 278 279 279 278 279
276 276 276 276 276 276 276 276 277 277 278 279 280 282 281 280 278 278 278 278 278 278
275 275 275 275 274 275 275 275 276 277 277 277 279 281 281 279 278 276 276 277 277 277
275 275 274 275 275 275 276 275 276 275 275 275 276 281 280 279 278 276 276 276 277 278
273 273 273 273 274 274 274 274 273 273 272 273 273 276 280 279 277 276 276 275 275 276

GFSNIL_sfc_thetae_216.txt.gz
Theta_e
300 305 305 305 306 305 303 303 305 306 307 307 308 308 308 306 306 304 302 301 301 300
295 297 299 301 302 302 302 303 303 302 302 302 305 304 303 301 300 300 299 298 297 295
292 293 293 294 295 295 296 296 296 296 296 295 295 296 296 294 294 293 293 293 292 291
289 290 290 290 290 290 291 292 292 292 292 291 291 292 291 290 289 288 288 288 287 286
287 288 287 287 287 288 288 288 289 289 288 288 288 288 287 285 285 285 284 284 283 282
285 285 285 285 285 286 286 286 286 286 285 285 284 284 284 283 282 281 281 280 280 280
283 283 283 283 283 283 284 284 284 284 284 283 283 282 282 281 280 280 280 281 281 280
282 282 282 281 281 281 281 282 283 283 283 283 282 282 281 280 280 279 278 279 279 279
280 280 280 280 280 280 280 280 280 280 281 281 283 285 284 281 280 279 279 277 278 278
278 277 277 278 278 278 278 278 278 279 279 279 281 284 283 282 279 279 278 278 278 278
276 276 276 276 276 276 277 277 277 278 278 279 280 282 282 281 278 278 277 277 278 278
275 275 275 275 274 275 276 276 276 277 277 277 279 282 281 279 277 277 276 277 277 277
275 275 274 274 274 275 275 276 276 276 275 275 277 281 281 279 278 276 276 276 276 279
274 274 274 274 274 275 275 274 274 273 274 274 274 278 280 279 278 277 275 274 274 275

GFSNIL_sfc_thetae_219.txt.gz
Theta_e
300 304 305 305 307 307 305 305 307 307 308 308 310 310 310 309 307 306 305 304 305 302
295 296 297 299 300 301 302 303 301 302 301 302 302 302 301 300 298 297 297 296 296 295
292 293 293 294 293 294 296 297 297 297 297 296 297 298 297 295 295 294 294 293 292 291
290 290 291 290 290 290 291 292 293 293 292 292 292 293 291 290 290 289 288 288 287 285
287 287 287 287 287 288 288 289 289 289 288 288 288 288 287 285 285 285 284 284 284 283
285 285 284 285 285 286 286 286 286 286 285 285 285 284 284 283 283 282 282 282 281 281
283 283 283 283 284 284 285 285 284 284 283 283 283 283 283 282 282 282 282 282 282 281
282 282 282 282 282 283 283 284 284 284 284 284 283 282 282 281 281 280 280 280 281 281
281 281 281 281 281 281 281 282 282 282 283 283 283 285 284 282 280 280 279 278 278 279
279 279 279 279 279 279 279 280 280 280 281 281 283 284 283 282 280 279 279 279 278 277
277 277 277 278 278 278 279 279 279 279 280 280 281 283 282 281 279 279 278 279 279 279
277 276 276 276 276 277 277 278 278 278 279 279 280 282 281 279 278 277 277 278 279 279
276 276 275 275 275 276 277 277 277 277 277 277 279 282 281 279 278 276 276 277 277 280
275 275 275 275 275 275 275 275 275 274 275 275 276 279 281 280 278 277 276 275 275 277

GFSNIL_sfc_thetae_222.txt.gz
Theta_e
301 304 305 306 308 308 308 308 309 310 311 311 311 312 311 309 309 307 307 306 306 303
296 298 298 299 300 301 302 303 303 304 303 303 303 303 302 302 301 300 301 299 299 298
295 295 294 295 295 296 297 299 299 299 299 300 299 300 300 298 297 295 295 293 292 293
293 293 292 292 291 292 293 294 295 295 296 296 295 296 293 292 291 290 289 289 288 288
290 290 289 289 289 290 289 290 291 291 291 291 291 290 289 288 288 287 287 287 287 286
288 287 286 286 287 288 288 286 287 287 287 287 287 287 287 286 286 285 284 285 285 285
286 286 286 286 286 286 286 286 286 285 285 285 285 285 285 285 285 284 285 285 285 284
285 286 285 285 285 285 285 286 286 286 285 286 285 285 285 285 284 283 283 283 284 284
284 284 284 284 284 285 285 285 285 285 286 285 284 285 284 284 282 282 281 280 282 282
281 281 281 282 283 283 283 284 284 285 285 285 284 284 283 283 282 282 281 280 279 279
281 281 281 281 281 282 282 282 282 283 283 283 283 283 282 282 281 281 281 281 281 280
280 280 280 280 280 281 281 281 281 281 281 281 281 282 281 281 280 279 279 280 281 281
279 280 279 279 279 279 280 279 280 279 281 281 281 281 281 280 279 278 278 279 280 280
279 278 279 278 278 279 278 278 278 277 278 279 280 281 281 280 279 278 278 277 278 279